SCP
1 1 0 0 0 0 0 0 0 0 0 0 0 0 0 0 0 0 0 0 0 0 0 0 0 0 0 0 0 0 0 0 0 0 0 0 0 0 0 0 0 0 0
1 1 0 0 0 0 0 0 0 0 0 0 0 0 0 0 0 0 0 0 0 0 0 0 0 0 0 0 0 0 0 0 0 0 0 0 0 0 0 0 0 0 0
1 1 0 0 0 0 0 0 0 0 0 0 0 0 0 0 0 0 0 0 0 0 1 1 1 1 0 0 0 0 0 0 0 0 0 0 0 0 0 0 0 0 0
1 1 0 0 0 0 0 0 0 0 0 0 0 0 0 0 0 0 0 0 0 0 1 1 1 1 0 0 0 1 1 1 0 0 0 0 0 0 0 0 0 0 0
1 1 1 0 0 0 0 0 0 0 0 0 0 0 0 0 0 0 0 0 0 1 1 1 1 1 0 0 0 0 1 1 1 0 0 0 0 0 0 0 0 0 0
1 1 1 1 0 0 0 0 0 0 0 0 0 0 0 0 0 0 0 0 0 0 0 0 1 1 1 1 1 1 1 1 1 1 0 0 0 0 0 0 0 0 0
1 1 1 1 1 0 0 0 0 0 0 0 0 0 0 0 0 0 0 0 0 0 0 0 1 1 1 1 1 1 1 1 1 1 1 1 0 0 0 0 0 0 0
1 1 1 1 1 0 0 0 0 0 0 0 0 0 0 0 0 0 0 0 0 0 0 0 0 1 1 1 1 1 1 1 1 1 1 1 1 1 1 1 1 1 1
1 1 1 1 1 0 0 0 0 0 0 0 0 0 0 0 0 0 0 0 0 0 0 0 0 0 0 1 1 0 0 0 1 1 1 1 1 1 1 1 1 1 1
1 2 2 1 1 1 0 0 0 0 0 0 0 0 0 0 0 0 0 0 0 0 0 0 0 0 0 0 0 0 0 0 1 1 1 1 1 1 1 1 1 1 1
1 2 2 2 1 1 1 0 0 0 0 0 0 0 0 0 0 0 0 0 0 0 0 0 0 0 0 0 0 0 0 0 0 1 1 1 0 0 0 0 0 0 0
1 2 2 2 2 1 1 1 1 0 0 0 0 0 0 0 0 0 0 0 0 0 0 0 0 0 0 0 0 0 0 0 0 0 0 0 0 0 0 0 0 0 0
1 1 2 3 2 2 1 1 1 0 0 0 0 0 0 0 0 0 0 0 0 0 0 0 0 0 0 0 0 0 0 0 0 0 0 0 0 0 0 0 0 0 0
1 1 2 2 2 2 1 1 1 0 0 0 0 0 0 0 0 0 0 0 0 0 0 0 0 0 0 0 0 0 0 0 0 0 0 0 0 0 0 0 0 0 0
1 1 1 2 2 2 2 1 1 0 0 0 0 0 0 0 0 0 0 0 0 0 0 0 0 0 0 0 0 0 0 0 0 0 0 0 0 0 0 0 0 0 0
1 1 1 1 2 2 2 1 1 1 1 1 1 0 0 0 0 0 0 0 0 0 0 0 0 0 0 0 0 0 0 0 0 0 0 0 0 0 0 0 0 0 0
1 1 1 1 2 2 2 2 1 1 1 1 1 1 0 0 0 0 0 0 0 0 0 0 0 0 0 0 0 0 0 0 0 0 0 0 0 0 0 0 0 0 0
1 1 2 2 2 2 2 2 2 2 2 1 1 1 1 1 1 1 1 0 0 0 0 0 0 0 0 1 1 1 0 0 0 0 0 0 0 0 0 0 0 0 0
2 2 2 2 2 3 2 2 2 2 2 2 1 1 1 1 1 1 1 1 1 1 1 1 1 1 1 1 1 1 1 1 1 0 0 0 0 0 0 0 0 0 0
2 2 3 3 3 3 2 2 2 2 2 2 2 2 1 1 1 2 2 1 1 1 1 1 1 1 1 1 2 1 1 1 1 1 0 0 0 0 0 0 0 0 0
3 3 4 3 3 3 2 2 2 2 2 2 2 2 2 2 1 1 1 1 2 2 2 2 2 2 2 2 2 2 2 2 1 1 1 1 1 1 1 0 0 0 0
3 3 3 3 2 2 1 1 1 2 3 3 3 3 3 2 1 1 1 1 1 1 1 2 2 2 2 3 2 2 2 2 2 2 2 1 1 1 1 1 0 0 0
3 2 2 2 2 1 1 0 1 2 3 3 3 3 3 3 2 1 1 1 1 1 1 2 2 2 2 3 3 2 2 2 2 2 2 1 1 1 1 1 0 0 0
2 2 2 2 2 2 1 0 0 1 2 2 2 3 3 3 3 2 2 1 1 1 1 1 1 2 2 2 3 3 3 3 2 3 2 2 1 1 1 1 0 0 0
3 2 2 2 2 2 1 0 0 1 1 1 2 2 2 3 2 2 2 2 2 2 1 1 1 1 1 1 2 2 3 3 2 2 3 3 2 1 1 1 1 0 0
3 2 2 2 2 1 1 0 0 1 1 1 1 1 1 1 1 1 1 2 2 2 2 1 1 1 1 1 1 2 3 3 3 3 3 4 3 2 1 1 1 1 0
Wind_Speed
3 3 2 1 1 2 3 2 2 2 2 3 3 3 3 2 2 3 5 7 7 7 7 7 7 7 7 7 8 8 8 8 8 8 7 8 8 8 7 7 7 7 6
3 3 3 2 1 1 1 1 2 2 2 2 2 3 3 3 3 3 4 7 7 7 7 7 7 8 7 8 8 8 8 9 8 8 8 8 8 8 8 8 7 7 7
4 3 3 3 2 2 2 2 2 2 3 3 3 3 3 2 3 3 3 3 6 8 8 7 7 8 8 9 9 9 8 8 9 9 9 9 8 8 8 8 8 8 7
4 3 3 3 2 2 2 2 2 2 2 2 2 2 3 3 3 4 4 4 3 5 8 8 7 8 8 9 9 10 9 9 9 10 10 10 10 9 9 9 9 8 8
5 4 2 2 3 2 2 2 2 2 3 2 3 3 2 2 3 3 3 4 4 3 4 8 8 7 9 9 10 10 10 10 10 11 11 11 11 11 10 10 10 9 9
5 4 4 3 4 3 2 1 2 2 2 2 2 3 2 2 2 2 4 4 4 5 5 5 7 7 8 8 8 9 10 10 10 11 11 11 12 12 11 11 11 11 11
5 4 3 4 4 2 2 3 3 5 4 3 3 4 4 3 2 2 2 2 3 4 4 4 4 3 6 8 6 7 8 9 10 11 11 11 11 11 12 12 12 12 12
6 5 3 4 4 3 3 3 3 3 3 3 3 3 4 5 5 3 3 3 2 3 4 5 4 3 3 4 6 6 6 7 8 9 9 10 10 11 11 12 12 12 13
6 4 5 3 3 4 4 3 4 5 3 4 3 3 3 2 4 5 3 3 3 2 3 4 5 4 4 2 4 7 6 5 6 7 7 7 8 9 10 11 12 13 13
6 6 5 4 4 2 3 5 4 3 4 4 4 2 3 3 2 3 5 5 4 3 2 3 4 4 4 3 3 4 4 4 5 5 5 6 6 6 7 9 11 11 12
7 6 6 5 4 3 3 2 3 4 4 4 3 4 3 3 5 3 3 4 5 4 4 4 2 3 3 3 3 6 5 3 2 3 3 4 5 6 7 8 9 10 10
7 8 7 6 5 4 4 3 3 4 3 2 3 3 4 4 4 4 3 4 4 4 4 3 4 3 3 4 4 8 5 3 3 2 2 3 3 4 5 6 8 9 10
7 8 8 7 6 5 5 4 4 3 3 3 4 3 3 3 3 4 4 3 3 3 4 5 5 4 4 4 5 8 7 5 4 3 3 3 3 4 4 5 6 7 8
7 8 9 8 7 7 6 5 5 5 4 4 4 3 3 3 3 4 4 4 4 5 5 5 4 5 4 5 4 6 6 8 6 5 5 5 5 5 5 6 6 6 7
6 8 9 9 8 8 7 7 5 5 5 6 5 6 5 3 4 3 4 5 5 5 4 5 5 4 4 4 5 6 6 8 8 8 8 7 7 8 8 8 8 8 8
7 8 9 9 9 8 8 8 7 6 6 6 4 4 5 5 3 4 4 4 5 6 5 2 3 4 2 4 6 7 7 7 10 10 10 10 10 10 10 10 10 10 10
8 9 9 9 9 9 9 8 8 7 8 7 7 7 7 6 5 5 5 5 5 5 6 5 3 3 4 7 5 6 8 8 9 14 13 11 11 11 11 12 12 12 12
9 9 9 9 9 9 9 10 10 9 9 9 9 8 8 7 7 7 5 6 5 5 7 7 5 5 7 7 7 7 8 8 8 10 14 13 13 13 13 13 13 13 13
8 8 8 8 9 9 9 9 9 9 9 9 9 9 9 8 8 7 7 7 6 6 7 7 7 5 6 6 7 8 10 7 9 8 13 15 15 15 14 14 14 14 14
7 8 8 8 8 7 8 8 9 9 9 9 8 8 9 9 9 8 8 8 8 7 7 8 8 7 6 7 6 7 8 7 8 8 7 8 11 15 16 16 16 16 15
6 6 6 5 5 5 6 7 8 9 9 9 8 8 8 6 5 5 6 6 7 7 7 8 8 8 7 6 6 6 7 7 7 8 8 8 8 9 11 15 18 17 16
4 4 4 4 4 3 0 2 6 7 7 7 7 7 6 5 6 6 7 7 7 8 9 8 8 8 7 7 6 7 7 8 8 5 6 8 8 9 8 10 9 12 15
3 3 3 2 1 1 2 1 3 4 4 4 3 3 4 3 3 5 7 9 9 8 8 9 10 9 8 6 6 9 8 9 9 8 7 10 10 10 10 9 8 10 12
3 3 3 3 3 5 5 1 1 3 2 1 1 1 2 2 2 4 6 6 6 6 7 7 7 8 7 6 6 8 10 10 11 10 9 11 10 11 10 9 8 12 14
5 5 5 6 6 8 9 5 2 1 1 0 1 2 1 1 5 5 5 5 6 5 3 3 5 6 7 7 7 7 8 9 10 10 7 9 10 11 11 11 10 12 15
7 7 8 8 9 9 11 10 5 2 2 1 2 4 7 6 5 5 4 4 5 5 5 4 4 6 7 7 8 8 8 9 10 10 7 6 9 10 11 10 9 8 9
Wind_Direction
166 156 150 164 187 145 165 175 176 153 177 188 192 171 174 172 185 183 133 158 176 185 188 189 190 187 188 188 186 186 186 183 180 177 176 176 174 175 175 174 173 172 170
160 172 169 174 171 166 105 178 158 182 193 170 175 158 179 172 167 193 164 158 173 181 188 193 193 191 195 198 198 198 198 195 190 187 187 185 185 186 186 186 188 186 183
161 183 172 185 159 156 164 193 170 191 191 180 163 161 164 167 155 181 185 173 174 175 182 189 194 197 202 205 206 207 209 204 196 193 193 193 194 196 196 197 198 197 195
171 193 176 167 158 190 183 175 211 191 182 185 164 170 149 156 163 180 184 189 194 175 172 180 194 200 205 211 212 211 211 210 204 200 198 200 202 203 204 204 203 202 201
172 192 174 133 193 195 196 205 169 215 182 180 169 171 177 162 178 184 186 192 185 200 170 163 190 200 207 214 215 213 213 213 209 207 207 208 210 209 209 210 209 207 207
173 187 173 169 211 190 184 179 159 212 206 198 194 152 180 169 200 176 213 190 186 196 191 172 186 186 197 211 217 214 215 216 214 213 214 216 217 215 213 214 213 212 212
167 195 180 166 217 185 189 183 190 177 199 191 197 182 175 187 175 182 201 208 176 187 176 178 206 190 179 188 202 212 217 220 217 217 218 220 221 219 216 217 217 217 217
175 182 186 189 185 169 185 193 216 217 178 201 233 201 186 173 189 172 175 189 191 189 184 181 177 194 232 182 155 186 207 221 221 218 219 221 225 225 221 220 221 221 221
185 185 182 200 179 209 175 199 206 219 201 192 243 256 235 191 158 161 179 176 193 201 196 174 188 179 200 201 166 168 193 208 220 224 224 224 228 231 230 227 226 225 226
186 184 186 190 206 209 162 204 189 217 227 210 190 250 308 350 266 167 181 177 182 202 188 203 174 171 188 186 149 133 172 199 213 222 223 225 227 230 235 238 235 235 233
192 190 188 188 196 202 175 206 172 231 225 239 216 202 208 220 255 264 189 177 186 189 187 206 202 187 177 188 188 135 142 160 179 199 213 223 226 228 235 242 245 246 243
191 192 194 196 202 193 176 191 197 201 244 260 265 238 226 228 229 241 235 218 205 180 189 209 220 204 203 200 163 127 151 166 174 183 203 219 223 228 237 244 249 252 252
191 189 196 197 203 196 194 194 203 215 206 212 238 247 254 263 275 266 265 247 234 197 190 217 214 218 218 211 160 156 176 185 198 208 215 224 232 239 245 253 259 261 260
197 185 195 199 203 202 203 199 212 204 206 219 230 248 253 247 257 259 267 268 248 228 209 220 207 217 226 226 147 188 192 185 205 220 228 235 240 244 247 251 256 261 264
202 192 198 200 202 203 207 206 222 214 208 223 217 208 236 227 240 253 260 268 275 269 237 187 220 197 219 226 161 224 229 186 203 224 232 237 242 245 247 248 250 253 256
208 202 203 204 204 203 205 213 217 210 217 223 240 241 243 240 229 237 244 249 261 275 282 242 212 206 215 247 185 233 244 184 208 223 231 236 241 245 247 248 249 250 250
208 209 209 208 209 209 208 211 226 213 219 221 221 221 228 252 246 236 232 238 241 250 261 261 232 208 220 257 233 239 245 239 229 206 218 230 237 242 244 246 247 249 249
213 212 214 215 217 219 215 214 222 221 221 224 224 225 228 224 227 249 246 243 244 251 258 265 261 234 218 233 243 250 253 244 253 199 202 221 232 238 240 242 244 245 246
213 216 215 220 224 226 223 223 224 227 228 230 229 227 230 232 230 234 239 246 241 233 239 255 255 254 245 235 237 242 248 253 262 231 204 215 225 234 239 240 241 242 243
212 217 220 224 227 230 230 229 227 229 231 231 232 233 234 234 234 237 237 242 250 251 240 248 255 249 241 236 239 251 251 234 249 263 256 240 225 223 232 236 237 238 239
211 214 217 221 229 236 238 237 234 229 228 229 229 232 234 238 254 255 260 248 243 245 247 246 251 254 250 246 249 256 264 269 258 258 261 258 244 238 228 227 229 233 235
197 202 208 210 216 237 241 242 252 247 235 231 229 229 229 220 231 235 262 276 278 262 263 265 263 264 270 270 271 274 276 274 274 267 268 270 269 267 262 260 236 214 223
176 183 184 181 163 47 64 159 233 255 246 242 239 241 246 233 234 245 232 232 245 249 257 269 275 279 285 286 288 277 274 278 281 289 283 275 273 270 267 264 228 218 226
124 118 101 91 78 49 43 43 233 230 252 270 273 268 267 294 322 305 275 260 254 244 239 241 263 274 285 298 285 278 281 275 269 261 257 267 272 273 274 272 241 220 228
90 86 80 74 70 53 38 31 350 157 129 74 21 31 3 20 25 342 288 276 273 270 241 238 271 276 286 280 279 278 273 272 274 274 263 265 276 281 280 276 265 229 226
85 82 75 68 67 58 42 37 17 34 51 54 69 74 61 42 30 357 313 300 293 303 307 290 260 252 257 249 230 246 267 272 278 281 283 280 281 287 284 279 280 278 254